Weather History for Louisa, VA

Change the Weather History Date:

Wednesday, March 27, 2013

  Actual Average (KCHO) Record (KCHO)
Temperature  
Mean Temperature 40 °F 50 °F  
Max Temperature 51 °F 61 °F 86 °F (1998)
Min Temperature 28 °F 38 °F 18 °F (1955)
Degree Days  
Heating Degree Days 26 15  
Month to date heating degree days 531  
Since 1 July heating degree days 3943  
Cooling Degree Days 0 0  
Month to date cooling degree days 0  
Year to date cooling degree days 0  
Moisture  
Dew Point 24 °F    
Average Humidity 55    
Maximum Humidity 93    
Minimum Humidity 30    
Precipitation  
Precipitation 0.00 in 0.14 in 0.33 in (2005)
Month to date precipitation 3.11  
Year to date precipitation 8.58  
Sea Level Pressure  
Sea Level Pressure 30.07 in    
Wind  
Wind Speed 7 mph (WNW)    
Max Wind Speed 20 mph    
Max Gust Speed 28 mph    
Visibility 10 miles    
Events      
T = Trace of Precipitation, MM = Missing Value Source: NWS Daily Summary

Daily Weather History Graph

Daily Weather History Graph

Search for Another Location

Airport:

Trip Planner

Search our weather history database for the weather conditions in past years. The results will help you decide how hot, cold, wet, or windy it might be!

Date:

Astronomy

Mar. 27, 2013 Rise Set
Actual Time 7:04 AM EDT 7:30 PM EDT
Civil Twilight 6:37 AM EDT 7:56 PM EDT
Nautical Twilight 6:06 AM EDT 8:28 PM EDT
Astronomical Twilight 5:35 AM EDT 8:59 PM EDT
Moon 8:10 PM EDT (3/27) 6:54 AM EDT (3/27)
Length of Visible Light 13h 19m
Length of Day
12h 26m
Full, 100% of the Moon is Illuminated
Mar 27
Full
Apr 3
Last Quarter
Apr 10
New
Apr 18
First Quarter
Apr 25
Full

Hourly Weather History & Observations

Time (EDT) Temp. Windchill Dew Point Humidity Pressure Visibility Wind Dir Wind Speed Gust Speed Precip Events Conditions
12:15 AM 28.4 °F - 24.8 °F 86% 30.02 in 10.0 mi Calm Calm - N/A   Clear
12:35 AM 28.4 °F 24.6 °F 24.8 °F 86% 30.02 in 10.0 mi West 3.5 mph - N/A   Clear
12:55 AM 28.4 °F 24.6 °F 24.8 °F 86% 30.02 in 10.0 mi West 3.5 mph - N/A   Clear
1:15 AM 28.4 °F 22.2 °F 26.6 °F 93% 30.02 in 10.0 mi WNW 5.8 mph - N/A   Clear
1:35 AM 28.4 °F 24.6 °F 24.8 °F 86% 30.02 in 10.0 mi West 3.5 mph - N/A   Clear
1:55 AM 28.4 °F 24.6 °F 26.6 °F 93% 30.02 in 10.0 mi WSW 3.5 mph - N/A   Clear
2:15 AM 33.8 °F 29.6 °F 26.6 °F 75% 30.02 in 10.0 mi West 4.6 mph - N/A   Clear
2:35 AM 30.2 °F 26.7 °F 26.6 °F 86% 30.02 in 10.0 mi West 3.5 mph - N/A   Clear
2:55 AM 30.2 °F 24.3 °F 24.8 °F 80% 30.02 in 10.0 mi West 5.8 mph - N/A   Clear
3:15 AM 33.8 °F 29.6 °F 26.6 °F 75% 30.02 in 10.0 mi WNW 4.6 mph - N/A   Clear
3:35 AM 33.8 °F 29.6 °F 26.6 °F 75% 30.02 in 10.0 mi WNW 4.6 mph - N/A   Clear
3:55 AM 33.8 °F 27.7 °F 26.6 °F 75% 30.02 in 10.0 mi WNW 6.9 mph - N/A   Clear
4:15 AM 33.8 °F 27.7 °F 26.6 °F 75% 30.03 in 10.0 mi WNW 6.9 mph - N/A   Clear
4:35 AM 35.6 °F 29.2 °F 26.6 °F 70% 30.03 in 10.0 mi WNW 8.1 mph - N/A   Clear
4:55 AM 35.6 °F 29.2 °F 26.6 °F 70% 30.03 in 10.0 mi WNW 8.1 mph - N/A   Clear
5:15 AM 37.4 °F 31.4 °F 26.6 °F 65% 30.03 in 10.0 mi WNW 8.1 mph - N/A   Clear
5:35 AM 35.6 °F 30.7 °F 26.6 °F 70% 30.03 in 10.0 mi WNW 5.8 mph - N/A   Clear
5:55 AM 33.8 °F - 26.6 °F 75% 30.04 in 10.0 mi Calm Calm - N/A   Clear
6:15 AM 30.2 °F 25.4 °F 26.6 °F 86% 30.04 in 10.0 mi West 4.6 mph - N/A   Clear
6:35 AM 30.2 °F 25.4 °F 24.8 °F 80% 30.05 in 10.0 mi West 4.6 mph - N/A   Clear
6:55 AM 33.8 °F - 24.8 °F 70% 30.05 in 10.0 mi Calm Calm - N/A   Clear
7:15 AM 28.4 °F 23.3 °F 24.8 °F 86% 30.05 in 10.0 mi WSW 4.6 mph - N/A   Clear
7:35 AM 32.0 °F 27.5 °F 24.8 °F 75% 30.06 in 10.0 mi West 4.6 mph - N/A   Clear
7:55 AM 33.8 °F 28.6 °F 24.8 °F 70% 30.07 in 10.0 mi West 5.8 mph - N/A   Clear
8:15 AM 35.6 °F 30.7 °F 24.8 °F 65% 30.07 in 10.0 mi West 5.8 mph - N/A   Clear
8:35 AM 37.4 °F 32.1 °F 26.6 °F 65% 30.08 in 10.0 mi West 6.9 mph - N/A   Clear
8:55 AM 39.2 °F 34.2 °F 26.6 °F 61% 30.08 in 10.0 mi West 6.9 mph - N/A   Clear
9:15 AM 41.0 °F 35.2 °F 26.6 °F 57% 30.09 in 10.0 mi West 9.2 mph - N/A   Clear
9:35 AM 42.8 °F 37.5 °F 26.6 °F 53% 30.09 in 10.0 mi West 9.2 mph - N/A   Clear
9:55 AM 44.6 °F 40.2 °F 26.6 °F 49% 30.08 in 10.0 mi West 8.1 mph - N/A   Clear
10:15 AM 46.4 °F 41.5 °F 24.8 °F 43% 30.08 in 10.0 mi NNW 10.4 mph 16.1 mph N/A   Clear
10:35 AM 46.4 °F 42.9 °F 24.8 °F 43% 30.09 in 10.0 mi NW 6.9 mph - N/A   Clear
10:55 AM 48.2 °F - 24.8 °F 40% 30.08 in 10.0 mi NW 12.7 mph 17.3 mph N/A   Clear
11:15 AM 48.2 °F - 24.8 °F 40% 30.08 in 10.0 mi NW 12.7 mph 20.7 mph N/A   Scattered Clouds
11:35 AM 48.2 °F - 24.8 °F 40% 30.08 in 10.0 mi NNW 15.0 mph 23.0 mph N/A   Mostly Cloudy
11:55 AM 50.0 °F - 24.8 °F 37% 30.08 in 10.0 mi WNW 11.5 mph 18.4 mph N/A   Mostly Cloudy
12:15 PM 50.0 °F - 24.8 °F 37% 30.08 in 10.0 mi WNW 11.5 mph 19.6 mph N/A   Scattered Clouds
12:35 PM 51.8 °F - 24.8 °F 35% 30.08 in 10.0 mi WNW 12.7 mph 23.0 mph N/A   Scattered Clouds
12:55 PM 51.8 °F - 24.8 °F 35% 30.08 in 10.0 mi WNW 13.8 mph 25.3 mph N/A   Scattered Clouds
1:15 PM 51.8 °F - 24.8 °F 35% 30.08 in 10.0 mi NW 18.4 mph 24.2 mph N/A   Scattered Clouds
1:35 PM 51.8 °F - 24.8 °F 35% 30.08 in 10.0 mi NW 12.7 mph 21.9 mph N/A   Scattered Clouds
1:55 PM 50.0 °F - 23.0 °F 35% 30.08 in 10.0 mi NNW 10.4 mph 21.9 mph N/A   Mostly Cloudy
2:15 PM 48.2 °F - 21.2 °F 34% 30.07 in 10.0 mi WNW 11.5 mph 21.9 mph N/A   Mostly Cloudy
2:35 PM 48.2 °F - 23.0 °F 37% 30.07 in 10.0 mi WNW 19.6 mph 27.6 mph N/A   Mostly Cloudy
2:55 PM 50.0 °F - 21.2 °F 32% 30.07 in 10.0 mi NW 11.5 mph 20.7 mph N/A   Scattered Clouds
3:15 PM 51.8 °F - 23.0 °F 33% 30.07 in 10.0 mi NW 19.6 mph 26.5 mph N/A   Mostly Cloudy
3:35 PM 51.8 °F - 21.2 °F 30% 30.07 in 10.0 mi WNW 15.0 mph 21.9 mph N/A   Mostly Cloudy
3:55 PM 48.2 °F - 21.2 °F 34% 30.06 in 10.0 mi NW 11.5 mph 21.9 mph N/A   Scattered Clouds
4:15 PM 50.0 °F - 21.2 °F 32% 30.06 in 10.0 mi NW 12.7 mph 25.3 mph N/A   Mostly Cloudy
4:35 PM 48.2 °F - 23.0 °F 37% 30.07 in 10.0 mi WNW 15.0 mph 20.7 mph N/A   Mostly Cloudy
4:55 PM 50.0 °F - 23.0 °F 35% 30.07 in 10.0 mi NW 11.5 mph 20.7 mph N/A   Scattered Clouds
5:15 PM 48.2 °F - 21.2 °F 34% 30.07 in 10.0 mi NW 12.7 mph 24.2 mph N/A   Scattered Clouds
5:35 PM 48.2 °F - 24.8 °F 40% 30.08 in 10.0 mi NW 15.0 mph 20.7 mph N/A   Scattered Clouds
5:55 PM 48.2 °F - 21.2 °F 34% 30.09 in 10.0 mi NW 16.1 mph 25.3 mph N/A   Scattered Clouds
6:15 PM 48.2 °F - 21.2 °F 34% 30.09 in 10.0 mi WNW 15.0 mph 23.0 mph N/A   Clear
6:35 PM 48.2 °F - 21.2 °F 34% 30.09 in 10.0 mi WNW 10.4 mph - N/A   Scattered Clouds
6:55 PM 46.4 °F 43.5 °F 19.4 °F 34% 30.10 in 10.0 mi NW 5.8 mph 9.2 mph N/A   Scattered Clouds
7:15 PM 44.6 °F 39.7 °F 19.4 °F 37% 30.11 in 10.0 mi WNW 9.2 mph 18.4 mph N/A   Clear
7:35 PM 42.8 °F 41.1 °F 19.4 °F 39% 30.12 in 10.0 mi WNW 3.5 mph - N/A   Clear
7:55 PM 42.8 °F 37.5 °F 21.2 °F 42% 30.12 in 10.0 mi WNW 9.2 mph - N/A   Clear
8:15 PM 42.8 °F 39.3 °F 21.2 °F 42% 30.12 in 10.0 mi West 5.8 mph - N/A   Clear
8:35 PM 39.2 °F - 21.2 °F 49% 30.13 in 10.0 mi Calm Calm - N/A   Clear
8:55 PM 41.0 °F 38.0 °F 21.2 °F 45% 30.13 in 10.0 mi WNW 4.6 mph - N/A   Clear
9:15 PM 35.6 °F 32.8 °F 21.2 °F 56% 30.14 in 10.0 mi West 3.5 mph - N/A   Clear
9:35 PM 39.2 °F 33.6 °F 21.2 °F 49% 30.14 in 10.0 mi West 8.1 mph - N/A   Clear
9:55 PM 37.4 °F 31.4 °F 21.2 °F 52% 30.14 in 10.0 mi West 8.1 mph - N/A   Clear
10:15 PM 39.2 °F 33.6 °F 23.0 °F 52% 30.14 in 10.0 mi West 8.1 mph - N/A   Clear
10:35 PM 37.4 °F 33.8 °F 23.0 °F 56% 30.14 in 10.0 mi West 4.6 mph - N/A   Clear
10:55 PM 37.4 °F 32.1 °F 23.0 °F 56% 30.14 in 10.0 mi West 6.9 mph - N/A   Clear
11:15 PM 35.6 °F 32.8 °F 23.0 °F 60% 30.14 in 10.0 mi WSW 3.5 mph - N/A   Clear
11:35 PM 35.6 °F 30.7 °F 23.0 °F 60% 30.14 in 10.0 mi West 5.8 mph - N/A   Clear
11:55 PM 33.8 °F 29.6 °F 23.0 °F 65% 30.14 in 10.0 mi West 4.6 mph - N/A   Clear